Погода Новотроицкое

Погода Новотроицкое : погода сейчас, прогноз погоды и архив. Всё, что Вы хотите узнать о погоде Новотроицкое!

Хотите узнать прогноз погоды Новотроицкое? Тогда Вам сюда: Погода Новотроицкое

Поиск расширенной информации на нашем сайте:

Другие новости

Новости СМИ2

Главная страница сайта

Новости сайта

03.07.2017

Напоминаем, что на нашем специализированном сайте Метеоцентр.Азия вы можете получить высокодетализированные автоматические прогнозы погоды по пунктам России, СНГ и мира в авиационном формате (включающие направление и скорость ветра, видимость, явления погоды, количество и форму облачности, нижнюю и верхнюю границу облачности).


Погода Новотроицкое - сегодня

Время (UTC), дата Ветер
(°,м/с) 
Видим.   Явления Облачность Т
(°С)
Тd
(°С)
f(%) Тe
(°С)
Pmin
(гПа)
dP
(гПа)
Po
(мм)
O2
(г/м3)
Тmin Tmax R s Состояние
почвы
15 13.02.18 140 (ЮВ) 10 км    10/0 средняя 
[Ac As]
+2.7 -3.9 62 +3  1012.8  -0.7  718  287    +7.8       
18 13.02.18 230 (ЮЗ) 10 км    10/10 600 м 
[Sc]
-0.5 -4.3 75 1014.8  1.3  719  291    +7.8       
21 13.02.18 230 (ЮЗ) 10 км    10/10 600 м 
[Sc]
-1.3 -3.6 84 -1  1016.4  720  292           
03 14.02.18 200 (Ю) 2000 м  дождь  10/10 300 м 
[Ns]
+1.2 +0.4 94 +1  1018.9  1.5  722  290      12  равномерный
мокрый или
старый снег
100% 
09 14.02.18 320 (СЗ) 20000 м    10/10 600 м 
[Sc]
+2 +0.4 89 +3  1018  -1.3  722  289           
12 14.02.18 тихо ()   0200 м  туман{дождь}  ?/?  
+1.1 +0.3 94 +1  1018.7  0.4  722  290           
21 14.02.18 320 (СЗ) 10 км  слаб. снег  10/10 300 м 
[Ns]
-2.2 -3.5 91 -4  1022  1.9  724  294           
09 15.02.18 270 (З) 20000 м    10/10 600 м 
[Sc]
-1.6 -4.9 78 -3  1031.9  731  297           
12 15.02.18 320 (СЗ) 20000 м    10/10 600 м 
[Sc]
-2.7 -6.4 76 -2  1035  2.6  733  299           
15 15.02.18 тихо ()   10 км    10/10 600 м 
[Sc]
-3.5 -6.7 78 -4  1037.4  2.2  735  301    -1       
18 15.02.18 180 (Ю) 10 км    10/10 600 м 
[Sc]
-6.5 -9.3 80 -6  1038.8  0.7  735  304    -1       
21 15.02.18 тихо ()   10 км    10/10 600 м 
[Sc]
-8.8 -11.2 83 -9  1040.1  0.7  736  307           
00 16.02.18 090 (В) 10 км    4/0 средняя 
[Ac cuf]
-8.4 -10.7 83 -8  1040.1  0.1  736  307           
06 16.02.18 360 (С) 20000 м    10/0 средняя 
[Ac As]
-4.3 -8.5 72 -4  1040.6  0.4  737  302  -11.7         
09 16.02.18 360 (С) 20000 м    8/0 средняя 
[Ac trans]
-2.5 -8.1 65 -4  1039.4  -0.7  736  300           
12 16.02.18 тихо ()   20000 м    8/0 средняя 
[Ac trans]
-2.7 -8 67 -3  1039.5  -0.1  736  300           
15 16.02.18 180 (Ю) 10 км    8/8 1000 м 
[Sc]
-7.7 -10.8 78 -7  1040.5  -0.1  736  306    -2       
18 16.02.18 180 (Ю) 10 км    8/0 средняя 
[Ac trans]
-8.8 -11.6 80 -10  1039.9  -0.7  736  307    -2       
21 16.02.18 200 (Ю) 10 км    10/0 средняя 
[Ac As]
-9.6 -12.2 81 -11  1039.6  -0.5  735  308           
00 17.02.18 180 (Ю) 10 км    10/10 600 м 
[Sc]
-7.7 -9.9 84 -7  1038.4  -0.7  735  306           
06 17.02.18 270 (З) 20000 м    8/0 средняя 
[Ac trans]
-4.2 -7.6 77 -5  1038.1  735  302  -9.7         
09 17.02.18 320 (СЗ) 20000 м    8/0 средняя 
[Ac trans]
-2.2 -6.5 72 -3  1036.9  -0.7  734  299           
12 17.02.18 270 (З) 20000 м    9/9 1000 м 
[Sc]
-3.1 -7 74 -3  1036.8  -0.3  734  300           
15 17.02.18 230 (ЮЗ) 10 км    10/10 1000 м 
[Sc]
-4.3 -7.7 77 -6  1036.9  -0.1  734  301    -1.6       
18 17.02.18 180 (Ю) 10 км    10/10 600 м 
[Sc]
-6.9 -8.9 86 -7  1036.3  -1.1  733  304    -1.6       
Время (UTC), дата Ветер
(°,м/с) 
Видим.   Явления Облачность Т
(°С)
Тd
(°С)
f(%) Тe
(°С)
Pmin
(гПа)
dP
(гПа)
Po
(мм)
O2
(г/м3)
Тmin Tmax R s Состояние
почвы

Для получения пояснительной информации подведите курсор к названию столбца.

ПОГОДА Новотроицкое - архив

Всё, что Вы хотите узнать о погоде Новотроицкое - удобно и подробно!

Выберите нужную дату (начиная с 1 января 2015* года) и нажмите кнопку "Найти".
Будут отображены архивные сводки погоды по пункту Новотроицкое, начиная с указанной даты.


Отображать данные в формате CSV (для использования в таблицах Excel)


Внимание! Наш архив погоды предназначен исключительно для личного некоммерческого использования в познавательных целях. Если Вам необходимы официальные справки о состоянии погоды (для производственных, юридических, коммерческих и т.п. целей), обращайтесь в органы Росгидромета.

*Примечание: данная дата относится к архиву по метеостанциям СССР (Россия, СНГ, Балтия).
Архив по метеостанциям Зарубежной Европы и Азии (кроме Китая) хранится 10 дней, по другим регионам земного шара (Китай, Африка, Америка, Австралия, Океания) - 1 день.

Новотроицкое - район местоположения метеостанции


Название, широта, долгота, высота метеостанции:
Новотроицкое 43.7°ш. 73.8°д. 456 м над ур. моря [Казахстан]

Дополнительная информация

В oтличие oт бoльшинства пoгoдных сайтoв мы публикуем пoдрoбную метеoинфoрмацию в детальнoм прoфессиoнальнoм фoрмате.

Характеристики температуры и влажнoсти вoздуха измеряются на высoте 2 м в тени вдали oт зданий и деревьев.
Скoрoсть ветра измеряется на высoте 10 м (на урoвне рoста челoвека скoрoсть ветра ниже в 1.5-2 раза). Если метеoстанция нахoдится в гoрoде или в лесу, тo скoрoсть ветра занижена на 2-4 м/с пo сравнению с oткрытым местoм. Скoрoсть ветра над акватoриями крупных рек и oзёр, а также на вершинах хoлмoв на 2-5 м/с выше, чем в oбычных услoвиях.
Атмoсфернoе давление в разных тoчках местнoсти мoжет значительнo oтличаться oт давления на метеoстанции, в зависимoсти oт услoвий рельефа (при пoдъёме на 10 м давление пoнижается примернo на 1 мм рт.ст.).